Location: Eaton Estates
(41.3089°N, 82.0057°W)
Time: 00:10:20
(UTC+00:00)

USA 308 - Visible Passes

Search period start: 24 October 2021 00:00
Search period end: 03 November 2021 00:00
Orbit: 566 x 573 km, 54.0° (Epoch: 23 September)

Date Brightness Start Highest point End Pass type
(mag) Time Alt. Az. Time Alt. Az. Time Alt. Az.
24 Oct 3.6 09:42:09 44° SSE 09:42:40 47° SE 09:46:44 10° ENE visible
24 Oct 3.8 11:18:52 10° W 11:22:42 32° NNW 11:26:34 10° NE visible
25 Oct 3.0 09:43:42 71° ESE 09:43:42 71° ESE 09:47:46 10° NE visible
25 Oct 4.2 11:20:14 10° W 11:23:48 25° NNW 11:27:22 10° NNE visible
26 Oct 3.2 09:45:05 61° NNE 09:45:05 61° NNE 09:48:41 10° NE visible
26 Oct 4.5 11:21:40 10° WNW 11:24:56 21° NNW 11:28:12 10° NNE visible
27 Oct 3.7 09:46:22 42° N 09:46:22 42° N 09:49:33 10° NE visible
27 Oct 4.7 11:23:08 10° WNW 11:26:05 18° NNW 11:29:03 10° NNE visible
28 Oct 4.1 09:47:32 31° N 09:47:32 31° N 09:50:22 10° NE visible
28 Oct 4.9 11:24:36 10° NW 11:27:17 16° N 11:29:57 10° NNE visible
29 Oct 4.5 09:48:38 25° N 09:48:38 25° N 09:51:10 10° NE visible
29 Oct 5.0 11:26:00 10° NW 11:28:29 15° N 11:30:58 10° NNE visible
30 Oct 4.7 09:49:40 21° N 09:49:40 21° N 09:51:58 10° NNE visible
30 Oct 5.0 11:27:17 10° NW 11:29:42 15° N 11:32:07 10° NE visible
31 Oct 4.9 09:50:39 18° N 09:50:39 18° N 09:52:46 10° NNE visible
01 Nov 5.1 09:51:37 16° N 09:51:37 16° N 09:53:37 10° NNE visible
01 Nov 5.0 11:29:25 10° NNW 11:32:05 16° N 11:34:45 10° NE visible
02 Nov 5.1 09:52:32 15° N 09:52:32 15° N 09:54:32 10° NNE visible
02 Nov 5.0 11:30:18 10° NNW 11:33:15 18° NNE 11:36:12 10° ENE visible
